User: anonymous   Login
Location: Albany
(35.0000°S, 118.0000°E)
Time: 23:38:18
(UTC-05:00)
Language:

Centaur D-1AR AC-48 - Orbit

View from above orbital plane
View from above orbital plane
View from above satellite
View from above satellite

Ground track
Ground track

The orbit data is extracted from the following two-line orbital elements,

1 10779U 78035B   16335.79943394 -.00000032 +00000-0 -26188-3 0  9998
2 10779 021.2608 137.9639 7178439 251.6107 009.8323 02.22653591314215
Epoch (UTC): 30 November 2016 19:11:11
Eccentricity: 0.7178439
inclination: 21.2608°
perigee height: 612 km
apogee height: 36178 km
right ascension of ascending node: 137.9639°
argument of perigee: 251.6107°
revolutions per day: 2.22653591
mean anomaly at epoch: 9.8323°
orbit number at epoch: 31421

The dashed part of the orbit path shows where the satellite is in the earth's shadow,  

DLR